This is the latest recevied weather packets stored in our database for station/object F4NFR-13. If no packets are shown the sender has not sent any weather packets the latest 10 day(s).
| Time | Temp. | Humidity | Pressure | Rain* | Wind** | Luminosity | Snow |
|---|---|---|---|---|---|---|---|
| 1777908853 | 15° C | 82% | 1014.7 hPa | 0 mm | - | 227 W/m² | - |
| 1777908551 | 15° C | 84% | 1014.7 hPa | 0 mm | - | 0 W/m² | - |
| 1777908249 | 15° C | 82% | 1014.7 hPa | 0 mm | - | 236 W/m² | - |
| 1777907946 | 16.11° C | 81% | 1014.7 hPa | 0 mm | - | 270 W/m² | - |
| 1777907645 | 16.11° C | 81% | 1014.7 hPa | 0 mm | - | 0 W/m² | - |
| 1777907342 | 16.11° C | 79% | 1014.4 hPa | 0 mm | - | 0 W/m² | - |
| 1777907039 | 16.11° C | 78% | 1014.7 hPa | 0 mm | - | 0 W/m² | - |
| 1777906736 | 16.11° C | 79% | 1014.7 hPa | 0 mm | - | 0 W/m² | - |
| 1777906434 | 16.11° C | 78% | 1014.7 hPa | 0 mm | - | - | - |
| 1777905829 | 16.11° C | 79% | 1014.7 hPa | 0 mm | - | 0 W/m² | - |
| 1777905527 | 16.11° C | 78% | 1014.7 hPa | 0 mm | - | 0 W/m² | - |
| 1777905225 | 16.11° C | 79% | 1014.7 hPa | 0 mm | - | 0 W/m² | - |
| 1777904922 | 17.22° C | 79% | 1014.7 hPa | 0 mm | - | 324 W/m² | - |
| 1777904620 | 17.22° C | 76% | 1014.7 hPa | 0 mm | - | 0 W/m² | - |
| 1777904317 | 17.22° C | 76% | 1014.7 hPa | 0 mm | - | 0 W/m² | - |
| 1777904014 | 17.22° C | 76% | 1014.7 hPa | 0 mm | - | - | - |
| 1777903712 | 17.22° C | 74% | 1014.7 hPa | 0 mm | - | 286 W/m² | - |
| 1777903409 | 17.22° C | 73% | 1015 hPa | 0 mm | - | 105 W/m² | - |
| 1777903107 | 17.22° C | 75% | 1015 hPa | 0 mm | - | 62 W/m² | - |
| 1777902804 | 17.78° C | 72% | 1015 hPa | 0 mm | - | 0 W/m² | - |
| 1777902501 | 17.22° C | 74% | 1015 hPa | 0 mm | - | 73 W/m² | - |
| 1777902199 | 17.22° C | 75% | 1015 hPa | 0 mm | - | 202 W/m² | - |
| 1777901897 | 17.22° C | 76% | 1015 hPa | 0 mm | - | 278 W/m² | - |
| 1777901594 | 17.22° C | 74% | 1015 hPa | 0 mm | - | 304 W/m² | - |
| 1777901292 | 17.22° C | 73% | 1015 hPa | 0 mm | - | 185 W/m² | - |
* Rain latest hour (hover to see other rain measurements)
** Current wind speed in m/s (hover to see current wind gust speed)